Chicago Midway, IL

4:44 PM CDT on September 24, 2017 (GMT -0500)
Chicago-Midway

Weather History for KMDW - April, 2013

Change the Weather History Date:

Tuesday, April 9, 2013

  Actual Average Record
Temperature  
Mean Temperature 50 °F 48 °F  
Max Temperature 60 °F 57 °F 78 °F (1952)
Min Temperature 40 °F 39 °F 21 °F (1972)
Degree Days  
Heating Degree Days 15 17  
Month to date heating degree days 185 169  
Since 1 July heating degree days 5300 5492  
Cooling Degree Days 0 0  
Month to date cooling degree days 0 0  
Year to date cooling degree days 0 1  
Moisture  
Dew Point 40 °F    
Average Humidity 84    
Maximum Humidity 93    
Minimum Humidity 54    
Precipitation  
Precipitation 0.18 in 0.12 in 1.58 in (1991)
Month to date precipitation 0.67 1.04  
Year to date precipitation 6.18 7.76  
Sea Level Pressure  
Sea Level Pressure 29.95 in    
Wind  
Wind Speed 10 mph (NE)    
Max Wind Speed 21 mph    
Max Gust Speed 25 mph    
Visibility 7 miles    
Events Rain , Thunderstorm    
T = Trace of Precipitation, MM = Missing Value Source: NWS Daily Summary

Daily Weather History Graph

Daily Weather History Graph

Search for Another Location

Airport or City:

Trip Planner

Search our weather history database for the weather conditions in past years. The results will help you decide how hot, cold, wet, or windy it might be!

Date:

Astronomy

Apr. 09, 2013 Rise Set
Actual Time 6:20 AM CDT 7:25 PM CDT
Civil Twilight 5:51 AM CDT 7:54 PM CDT
Nautical Twilight 5:17 AM CDT 8:28 PM CDT
Astronomical Twilight 4:42 AM CDT 9:04 PM CDT
Moon 5:42 AM CDT (4/9) 7:01 PM CDT (4/9)
Length of Visible Light 14h 02m
Length of Day
13h 05m
Waning Crescent, 1% of the Moon is Illuminated
Apr 9
Waning Crescent
Apr 10
New
Apr 18
First Quarter
Apr 25
Full
May 2
Last Quarter

Hourly Weather History & Observations

Time (CDT) Temp. Windchill Dew Point Humidity Pressure Visibility Wind Dir Wind Speed Gust Speed Precip Events Conditions
12:18 AM 39.2 °F 33.6 °F 37.4 °F 93% 30.00 in 2.0 mi East 8.1 mph - N/A   Overcast
12:47 AM 39.2 °F 33.0 °F 37.4 °F 93% 30.00 in 4.0 mi NE 9.2 mph - N/A   Overcast
12:51 AM 39.9 °F 33.9 °F 37.0 °F 89% 30.01 in 5.0 mi NE 9.2 mph - N/A   Overcast
1:22 AM 39.2 °F 33.6 °F 37.4 °F 93% 30.00 in 6.0 mi ENE 8.1 mph - N/A   Overcast
1:44 AM 39.2 °F 34.2 °F 37.4 °F 93% 29.99 in 7.0 mi ENE 6.9 mph - N/A   Overcast
1:51 AM 39.2 °F 33.6 °F 37.4 °F 93% 30.00 in 7.0 mi ENE 8.1 mph - N/A   Overcast
2:46 AM 42.8 °F 38.6 °F 37.4 °F 81% 29.98 in 10.0 mi ENE 6.9 mph - 0.00 in Rain , Thunderstorm Light Thunderstorms and Rain
2:51 AM 42.1 °F 37.1 °F 37.9 °F 85% 29.99 in 10.0 mi NE 8.1 mph - 0.00 in Rain , Thunderstorm Light Thunderstorms and Rain
3:27 AM 41.0 °F 35.2 °F 37.4 °F 87% 29.98 in 6.0 mi NNE 9.2 mph - 0.13 in Rain Light Rain
3:51 AM 41.0 °F 34.7 °F 37.9 °F 89% 29.99 in 6.0 mi NNE 10.4 mph - 0.14 in Rain Light Rain
4:26 AM 41.0 °F 38.0 °F 39.2 °F 93% 29.97 in 7.0 mi NE 4.6 mph - 0.00 in   Overcast
4:51 AM 42.1 °F 37.1 °F 39.0 °F 89% 29.98 in 6.0 mi ENE 8.1 mph - 0.00 in   Mostly Cloudy
5:02 AM 42.8 °F 38.0 °F 39.2 °F 87% 29.98 in 7.0 mi NE 8.1 mph - N/A   Mostly Cloudy
5:40 AM 42.8 °F 36.6 °F 39.2 °F 87% 29.97 in 5.0 mi ENE 11.5 mph - N/A   Overcast
5:51 AM 41.0 °F 34.7 °F 39.0 °F 93% 29.97 in 5.0 mi ENE 10.4 mph - N/A   Overcast
6:51 AM 41.0 °F 34.3 °F 39.0 °F 93% 29.96 in 5.0 mi East 11.5 mph - N/A   Overcast
7:10 AM 41.0 °F 35.2 °F 39.2 °F 93% 29.94 in 5.0 mi East 9.2 mph - N/A   Overcast
7:51 AM 42.1 °F 40.2 °F 39.0 °F 89% 29.97 in 8.0 mi ENE 3.5 mph - N/A   Overcast
8:51 AM 44.1 °F 39.5 °F 39.9 °F 85% 29.95 in 7.0 mi NE 8.1 mph - 0.00 in Rain Light Rain
9:49 AM 42.8 °F 37.5 °F 39.2 °F 87% 29.91 in 5.0 mi NNE 9.2 mph - 0.04 in Rain Light Rain
9:51 AM 43.0 °F 37.7 °F 41.0 °F 93% 29.93 in 5.0 mi NNE 9.2 mph - 0.04 in Rain Light Rain
10:51 AM 45.0 °F 41.8 °F 42.1 °F 90% 29.91 in 7.0 mi ENE 5.8 mph - 0.00 in   Overcast
11:51 AM 48.0 °F - 43.0 °F 83% 29.89 in 7.0 mi North 4.6 mph - N/A   Overcast
12:51 PM 52.0 °F - 45.0 °F 77% 29.86 in 8.0 mi North 8.1 mph - N/A   Mostly Cloudy
1:51 PM 51.1 °F - 44.1 °F 77% 29.88 in 9.0 mi NNE 6.9 mph - N/A   Overcast
2:51 PM 55.0 °F - 45.0 °F 69% 29.86 in 9.0 mi North 5.8 mph - N/A   Overcast
3:51 PM 57.0 °F - 45.0 °F 64% 29.84 in 10.0 mi North 4.6 mph - N/A   Overcast
4:51 PM 55.9 °F - 45.0 °F 67% 29.87 in 10.0 mi North 13.8 mph - N/A   Overcast
5:51 PM 46.9 °F - 39.9 °F 77% 29.92 in 10.0 mi North 16.1 mph 24.2 mph N/A   Overcast
6:21 PM 44.6 °F 37.4 °F 39.2 °F 81% 29.92 in 10.0 mi North 16.1 mph - N/A   Overcast
6:51 PM 45.0 °F 37.9 °F 39.0 °F 80% 29.95 in 10.0 mi NNE 16.1 mph - N/A   Overcast
7:22 PM 44.6 °F 37.8 °F 39.2 °F 81% 29.93 in 10.0 mi NNE 15.0 mph - N/A   Overcast
7:51 PM 43.0 °F 35.7 °F 39.0 °F 86% 29.96 in 7.0 mi NNE 15.0 mph - N/A   Overcast
8:51 PM 42.1 °F 34.9 °F 37.9 °F 85% 29.98 in 7.0 mi NNE 13.8 mph - N/A   Overcast
9:51 PM 43.0 °F 36.4 °F 37.9 °F 82% 29.99 in 6.0 mi NNE 12.7 mph - N/A   Haze
10:51 PM 42.1 °F 34.9 °F 37.9 °F 85% 29.97 in 7.0 mi NNE 13.8 mph - N/A   Overcast
11:51 PM 42.1 °F 34.5 °F 39.0 °F 89% 29.95 in 7.0 mi NNE 15.0 mph - N/A   Overcast